KC5DDG Weather Reports


time (UTC)temp
C
wind
direction
speed
KPH
gust
KPH
rain 1hr
cm
rain 24hr
cm
rain mn
cm
humidity
%
barometer
mb
20260906093507 22 342 0.0 0.0 0.00 0.00 0.00 90 1010.3
20260906093007 22 342 0.0 0.0 0.00 0.00 0.00 90 1010.2
20260906092507 23 342 0.0 0.0 0.00 0.00 0.00 90 1010.3
20260906092007 23 342 0.0 0.0 0.00 0.00 0.00 90 1010.3
20260906091507 23 342 0.0 0.0 0.00 0.00 0.00 89 1010.2
20260906091006 23 342 0.0 0.0 0.00 0.00 0.00 89 1010.3
20260906090506 23 342 0.0 0.0 0.00 0.00 0.00 89 1010.1
20260906090006 23 342 0.0 0.0 0.00 0.00 0.00 88 1010.0
20260906085506 23 342 0.0 0.0 0.00 0.00 0.00 89 1009.9
20260906085007 23 342 0.0 0.0 0.00 0.00 0.00 88 1009.7
20260906084507 23 342 0.0 0.0 0.00 0.00 0.00 88 1009.7
20260906084007 23 342 0.0 0.0 0.00 0.00 0.00 88 1009.8
20260906083507 23 342 0.0 0.0 0.00 0.00 0.00 88 1009.8
20260906083007 23 342 0.0 0.0 0.00 0.00 0.00 88 1009.7
20260906082507 23 342 0.0 0.0 0.00 0.00 0.00 88 1009.7
20260906082007 23 342 0.0 0.0 0.00 0.00 0.00 88 1009.7
20260906081507 23 342 0.0 0.0 0.00 0.00 0.00 87 1009.7
20260906081007 23 342 0.0 0.0 0.00 0.00 0.00 87 1009.8
20260906080507 23 342 0.0 0.0 0.00 0.00 0.00 87 1009.8
20260906080006 23 342 0.0 0.0 0.00 0.00 0.00 87 1009.7
20260906075506 23 342 0.0 0.0 0.00 0.00 0.00 87 1009.6
20260906075006 23 342 0.0 0.0 0.00 0.00 0.00 86 1009.6
20260906074506 23 342 0.0 0.0 0.00 0.00 0.00 86 1009.7
20260906074007 23 342 0.0 0.0 0.00 0.00 0.00 86 1009.7
20260906073506 23 342 0.0 0.0 0.00 0.00 0.00 86 1009.7
20260906073006 23 341 0.0 0.0 0.00 0.00 0.00 85 1009.8
20260906072006 24 340 0.0 0.0 0.00 0.00 0.00 85 1009.9
20260906071507 24 340 0.0 1.6 0.00 0.00 0.00 85 1010.0
20260906071006 24 342 1.6 3.2 0.00 0.00 0.00 85 1009.9
20260906070506 24 348 0.0 1.6 0.00 0.00 0.00 85 1009.9
20260906065006 24 354 1.6 3.2 0.00 0.00 0.00 84 1010.0
20260906064506 24 13 0.0 1.6 0.00 0.00 0.00 84 1009.9
20260906063506 24 344 1.6 3.2 0.00 0.00 0.00 84 1010.0
20260906063006 24 350 1.6 3.2 0.00 0.00 0.00 85 1010.0
20260906062506 24 322 1.6 4.8 0.00 0.00 0.00 85 1010.1
20260906062006 25 330 3.2 4.8 0.00 0.00 0.00 84 1010.2
20260906061505 25 341 4.8 4.8 0.00 0.00 0.00 84 1010.2
20260906061006 25 331 1.6 4.8 0.00 0.00 0.00 84 1010.2
20260906060506 25 320 1.6 3.2 0.00 0.00 0.00 84 1010.2
20260906060006 25 345 0.0 1.6 0.00 0.00 0.00 84 1010.3
20260906055006 25 338 1.6 3.2 0.00 0.00 0.00 84 1010.6
20260906054506 25 340 0.0 3.2 0.00 0.00 0.00 83 1010.6
20260906054006 25 34 1.6 3.2 0.00 0.00 0.00 83 1010.7
20260906053506 25 272 0.0 0.0 0.00 0.00 0.00 83 1010.6
20260906053006 25 272 0.0 0.0 0.00 0.00 0.00 83 1010.6
20260906052506 25 272 0.0 0.0 0.00 0.00 0.00 83 1010.6
20260906052006 25 272 0.0 0.0 0.00 0.00 0.00 84 1010.6
20260906051506 25 272 0.0 0.0 0.00 0.00 0.00 84 1010.6
20260906051006 25 272 0.0 0.0 0.00 0.00 0.00 84 1010.5
20260906050506 25 272 0.0 0.0 0.00 0.00 0.00 83 1010.6
20260906050006 25 272 0.0 1.6 0.00 0.00 0.00 83 1010.6
20260906045506 25 272 0.0 0.0 0.00 0.00 0.00 82 1010.6
20260906045006 25 272 0.0 0.0 0.00 0.00 0.00 82 1010.7
20260906044506 25 272 0.0 0.0 0.00 0.00 0.00 83 1010.7
20260906044006 25 272 0.0 0.0 0.00 0.00 0.00 82 1010.7
20260906043005 25 272 0.0 0.0 0.00 0.00 0.00 82 1010.6
20260906042505 25 272 0.0 0.0 0.00 0.00 0.00 82 1010.7
20260906042006 25 272 0.0 0.0 0.00 0.00 0.00 82 1010.7
20260906041505 25 272 0.0 3.2 0.00 0.00 0.00 81 1010.7
20260906041006 25 245 0.0 0.0 0.00 0.00 0.00 81 1010.7
20260906040505 25 245 0.0 1.6 0.00 0.00 0.00 81 1010.8
20260906040005 25 125 0.0 0.0 0.00 0.00 0.00 81 1010.8
20260906035505 25 123 1.6 3.2 0.00 0.00 0.00 81 1010.9
20260906035006 25 338 1.6 4.8 0.00 0.00 0.00 81 1011.1
20260906034506 25 286 0.0 1.6 0.00 0.00 0.00 80 1011.0
20260906033506 25 277 0.0 3.2 0.00 0.00 0.00 80 1011.1
20260906033006 25 64 0.0 1.6 0.00 0.00 0.00 79 1011.3
20260906032506 26 313 0.0 0.0 0.00 0.00 0.00 79 1011.3
20260906032005 26 313 1.6 3.2 0.00 0.00 0.00 79 1011.5
20260906031506 26 313 0.0 1.6 0.00 0.00 0.00 77 1011.5
20260906030505 26 313 0.0 1.6 0.00 0.00 0.00 75 1011.4
20260906030006 27 216 0.0 3.2 0.00 0.00 0.00 73 1011.3
20260906025505 27 214 0.0 0.0 0.00 0.00 0.00 71 1011.2
20260906025006 27 214 0.0 0.0 0.00 0.00 0.00 70 1011.2
20260906024505 27 214 0.0 1.6 0.00 0.00 0.00 70 1011.2
20260906024006 27 214 0.0 3.2 0.00 0.00 0.00 70 1011.2
20260906023505 27 214 0.0 0.0 0.00 0.00 0.00 71 1011.2
20260906023006 27 214 0.0 0.0 0.00 0.00 0.00 71 1011.3
20260906022505 27 214 0.0 0.0 0.00 0.00 0.00 71 1011.4
20260906022005 27 214 0.0 0.0 0.00 0.00 0.00 71 1011.5
20260906021006 27 214 0.0 0.0 0.00 0.00 0.00 71 1011.6
20260906020505 27 214 0.0 0.0 0.00 0.00 0.00 71 1011.5
20260906020005 27 214 0.0 0.0 0.00 0.00 0.00 71 1011.4
20260906015505 27 214 0.0 0.0 0.00 0.00 0.00 71 1011.2
20260906015005 27 214 0.0 0.0 0.00 0.00 0.00 70 1011.2
20260906014506 27 214 0.0 0.0 0.00 0.00 0.00 70 1011.1
20260906014005 27 214 0.0 0.0 0.00 0.00 0.00 70 1011.1
20260906013506 27 214 0.0 0.0 0.00 0.00 0.00 71 1011.1
20260906013005 27 214 0.0 0.0 0.00 0.00 0.00 71 1011.0
20260906012505 27 214 0.0 3.2 0.00 0.00 0.00 71 1010.9
20260906012005 27 214 3.2 4.8 0.00 0.00 0.00 70 1010.7
20260906011505 27 214 1.6 4.8 0.00 0.00 0.00 70 1010.6
20260906011005 27 214 3.2 4.8 0.00 0.00 0.00 70 1010.5
20260906010505 27 214 0.0 1.6 0.00 0.00 0.00 70 1010.5
20260906010005 27 192 0.0 1.6 0.00 0.00 0.00 70 1010.3
20260906005505 27 136 0.0 0.0 0.00 0.00 0.00 70 1010.2
20260906005005 27 136 1.6 4.8 0.00 0.00 0.00 70 1010.3
20260906004006 27 233 1.6 4.8 0.00 0.00 0.00 70 1010.4
20260906003505 27 326 3.2 4.8 0.00 0.00 0.00 69 1010.2
20260906002005 28 327 1.6 4.8 0.00 0.00 0.00 67 1010.1
20260906001505 28 101 3.2 4.8 0.00 0.00 0.00 67 1010.0
20260906001005 28 59 1.6 12.9 0.00 0.00 0.00 66 1010.2
20260906000506 29 77 3.2 12.9 0.00 0.00 0.00 64 1010.2
20260906000005 29 112 1.6 19.3 0.00 0.00 0.00 64 1010.1
20260905235005 30 125 1.6 4.8 0.00 0.00 0.00 62 1010.1
20260905234505 30 126 0.0 0.0 0.00 0.00 0.00 61 1010.2
20260905234005 30 126 0.0 1.6 0.00 0.00 0.00 61 1010.2
20260905233505 30 182 0.0 3.2 0.00 0.00 0.00 60 1010.0
20260905232505 30 28 0.0 3.2 0.00 0.00 0.00 59 1009.9
20260905232005 30 105 0.0 3.2 0.00 0.00 0.00 59 1009.9
20260905230506 30 255 0.0 4.8 0.00 0.00 0.00 60 1009.7
20260905230005 30 109 3.2 4.8 0.00 0.00 0.00 60 1009.8
20260905225505 30 139 0.0 4.8 0.00 0.00 0.00 60 1009.7
20260905225005 30 305 1.6 4.8 0.00 0.00 0.00 60 1009.6
20260905224505 30 292 1.6 3.2 0.00 0.00 0.00 60 1009.7
20260905224005 30 345 3.2 12.9 0.00 0.00 0.00 59 1009.8
20260905223506 31 350 4.8 12.9 0.00 0.00 0.00 57 1010.0
20260905223005 31 37 3.2 14.5 0.00 0.00 0.00 57 1009.9
20260905222005 32 354 4.8 19.3 0.00 0.00 0.00 56 1009.5
20260905221505 32 344 8.0 19.3 0.00 0.00 0.00 56 1009.3
20260905221005 33 331 9.7 20.9 0.00 0.00 0.00 53 1009.2
20260905220505 35 353 20.9 33.8 0.00 0.00 0.00 48 1009.4
20260905220005 37 355 3.2 4.8 0.00 0.00 0.00 45 1009.1
20260905215005 37 292 0.0 4.8 0.00 0.00 0.00 44 1008.7
20260905214505 37 221 0.0 4.8 0.00 0.00 0.00 46 1008.7
20260905214004 36 133 1.6 4.8 0.00 0.00 0.00 46 1008.7
20260905213505 37 208 4.8 9.7 0.00 0.00 0.00 45 1008.8
20260905213005 37 204 4.8 11.3 0.00 0.00 0.00 45 1008.8
20260905212505 37 308 3.2 8.0 0.00 0.00 0.00 46 1008.8
20260905212005 37 207 4.8 8.0 0.00 0.00 0.00 44 1008.8
20260905211504 36 322 3.2 4.8 0.00 0.00 0.00 46 1008.8
20260905211004 36 297 3.2 9.7 0.00 0.00 0.00 46 1008.9
20260905210505 37 144 3.2 14.5 0.00 0.00 0.00 45 1009.1
20260905210004 37 317 1.6 4.8 0.00 0.00 0.00 46 1009.2
20260905205504 37 233 4.8 12.9 0.00 0.00 0.00 46 1009.1
20260905205004 37 205 3.2 4.8 0.00 0.00 0.00 47 1009.1
20260905204505 36 314 3.2 8.0 0.00 0.00 0.00 47 1009.1
20260905204005 36 349 3.2 11.3 0.00 0.00 0.00 48 1009.1
20260905203505 36 199 6.4 14.5 0.00 0.00 0.00 47 1009.1
20260905203004 36 222 3.2 8.0 0.00 0.00 0.00 47 1008.9
20260905202505 36 274 3.2 9.7 0.00 0.00 0.00 48 1009.0
20260905201504 35 325 4.8 9.7 0.00 0.00 0.00 49 1008.9
20260905201005 35 319 4.8 14.5 0.00 0.00 0.00 47 1009.2
20260905200505 36 329 6.4 14.5 0.00 0.00 0.00 48 1009.3
20260905200004 36 346 9.7 14.5 0.00 0.00 0.00 47 1009.4
20260905195505 36 326 4.8 8.0 0.00 0.00 0.00 48 1009.4
20260905195005 36 191 6.4 9.7 0.00 0.00 0.00 46 1009.4
20260905193505 36 79 3.2 4.8 0.00 0.00 0.00 48 1009.6
20260905193004 36 329 4.8 8.0 0.00 0.00 0.00 46 1009.6
20260905192504 36 318 3.2 4.8 0.00 0.00 0.00 45 1009.7
20260905192004 36 7 1.6 11.3 0.00 0.00 0.00 46 1009.8
20260905191005 36 270 1.6 4.8 0.00 0.00 0.00 45 1010.0
20260905190505 36 350 1.6 4.8 0.00 0.00 0.00 47 1009.9
20260905185005 36 119 3.2 9.7 0.00 0.00 0.00 50 1010.3
20260905184505 36 320 3.2 4.8 0.00 0.00 0.00 51 1010.4
20260905183505 36 236 4.8 12.9 0.00 0.00 0.00 51 1010.6
20260905183005 36 247 1.6 11.3 0.00 0.00 0.00 51 1010.6
20260905182505 35 192 3.2 8.0 0.00 0.00 0.00 52 1010.6
20260905182004 35 186 3.2 8.0 0.00 0.00 0.00 55 1010.8
20260905181504 34 331 4.8 11.3 0.00 0.00 0.00 55 1010.8
20260905180504 34 287 4.8 8.0 0.00 0.00 0.00 55 1011.0
20260905175505 34 306 6.4 12.9 0.00 0.00 0.00 54 1011.0
20260905175004 34 224 1.6 9.7 0.00 0.00 0.00 55 1011.2
20260905174505 34 323 8.0 12.9 0.00 0.00 0.00 55 1011.2
20260905174004 33 96 3.2 4.8 0.00 0.00 0.00 56 1011.2
20260905173504 33 287 1.6 4.8 0.00 0.00 0.00 57 1011.4
20260905173004 33 322 4.8 11.3 0.00 0.00 0.00 57 1011.5
20260905172004 33 232 3.2 8.0 0.00 0.00 0.00 57 1011.5
20260905171504 33 123 1.6 4.8 0.00 0.00 0.00 58 1011.5
20260905171005 33 200 3.2 9.7 0.00 0.00 0.00 58 1011.5
20260905170504 33 215 4.8 12.9 0.00 0.00 0.00 59 1011.6
20260905170004 33 202 1.6 8.0 0.00 0.00 0.00 60 1011.7
20260905165504 33 285 1.6 4.8 0.00 0.00 0.00 59 1011.9
20260905164504 33 250 4.8 9.7 0.00 0.00 0.00 58 1012.0
20260905164004 33 28 1.6 9.7 0.00 0.00 0.00 59 1012.1
20260905163504 33 145 4.8 12.9 0.00 0.00 0.00 60 1012.2
20260905162504 33 321 1.6 4.8 0.00 0.00 0.00 62 1012.4
20260905162004 33 299 3.2 8.0 0.00 0.00 0.00 62 1012.6
20260905160504 32 343 1.6 4.8 0.00 0.00 0.00 61 1012.6
20260905160004 32 324 3.2 4.8 0.00 0.00 0.00 61 1012.8
20260905155503 32 333 3.2 8.0 0.00 0.00 0.00 64 1012.9
20260905155003 32 296 3.2 8.0 0.00 0.00 0.00 64 1012.9
20260905154504 32 299 3.2 4.8 0.00 0.00 0.00 63 1012.8
20260905154004 32 228 3.2 8.0 0.00 0.00 0.00 64 1012.9
20260905152504 31 311 4.8 8.0 0.00 0.00 0.00 66 1012.9
20260905151004 30 326 3.2 8.0 0.00 0.00 0.00 70 1013.0
20260905150504 31 317 4.8 8.0 0.00 0.00 0.00 69 1013.1
20260905150004 31 325 1.6 4.8 0.00 0.00 0.00 70 1013.1
20260905145503 30 11 4.8 8.0 0.00 0.00 0.00 70 1013.3
20260905145004 30 326 3.2 8.0 0.00 0.00 0.00 72 1013.2
20260905144504 30 341 0.0 4.8 0.00 0.00 0.00 73 1013.4
20260905144004 30 291 3.2 4.8 0.00 0.00 0.00 74 1013.4
20260905143503 30 348 1.6 4.8 0.00 0.00 0.00 74 1013.4
20260905143003 29 313 1.6 8.0 0.00 0.00 0.00 74 1013.4
20260905141508 29 301 3.2 4.8 0.00 0.00 0.00 77 1013.5
20260905141007 29 320 1.6 4.8 0.00 0.00 0.00 77 1013.7
20260905135007 28 88 1.6 3.2 0.00 0.00 0.00 81 1013.8
20260905134507 27 221 3.2 4.8 0.00 0.00 0.00 81 1013.7
20260905134008 27 313 1.6 4.8 0.00 0.00 0.00 82 1013.6
20260905133507 27 317 1.6 4.8 0.00 0.00 0.00 82 1013.6
20260905132507 27 257 1.6 4.8 0.00 0.00 0.00 83 1013.7
20260905132007 27 236 1.6 4.8 0.00 0.00 0.00 85 1013.7
20260905131008 26 210 0.0 3.2 0.00 0.00 0.00 86 1013.8
20260905130507 26 216 1.6 3.2 0.00 0.00 0.00 87 1013.9
20260905130007 26 244 1.6 4.8 0.00 0.00 0.00 88 1013.9
20260905125507 25 212 1.6 4.8 0.00 0.00 0.00 89 1014.0
20260905125007 25 229 1.6 4.8 0.00 0.00 0.00 90 1014.0
20260905124507 25 247 1.6 3.2 0.00 0.00 0.00 90 1013.9
20260905124007 25 240 1.6 8.0 0.00 0.00 0.00 91 1013.8
20260905123507 25 238 4.8 8.0 0.00 0.00 0.00 92 1013.7
20260905123007 24 205 3.2 4.8 0.00 0.00 0.00 93 1013.7
20260905122507 24 220 0.0 4.8 0.00 0.00 0.00 94 1013.6
20260905121507 23 195 0.0 0.0 0.00 0.00 0.00 95 1013.6
20260905121007 23 200 0.0 0.0 0.00 0.00 0.00 95 1013.6
20260905120507 23 230 0.0 0.0 0.00 0.00 0.00 95 1013.5
20260905115007 23 260 0.0 0.0 0.00 0.00 0.00 95 1013.4
20260905114007 23 230 0.0 0.0 0.00 0.00 0.00 95 1013.3
20260905113507 23 194 0.0 0.0 0.00 0.00 0.00 95 1013.4
20260905113007 23 194 0.0 0.0 0.00 0.00 0.00 95 1013.4
20260905112507 23 194 0.0 0.0 0.00 0.00 0.00 95 1013.3
20260905112007 23 194 0.0 0.0 0.00 0.00 0.00 94 1013.4
20260905110507 23 306 0.0 0.0 0.00 0.00 0.00 94 1013.1
20260905110007 23 306 0.0 0.0 0.00 0.00 0.00 94 1013.1
20260905105507 23 306 0.0 0.0 0.00 0.00 0.00 94 1013.1
20260905105007 23 306 0.0 0.0 0.00 0.00 0.00 94 1012.9
20260905104506 23 306 0.0 0.0 0.00 0.00 0.00 94 1013.0
20260905103507 23 306 0.0 0.0 0.00 0.00 0.00 94 1012.8
20260905103006 23 306 0.0 0.0 0.00 0.00 0.00 94 1012.8
20260905102507 23 306 0.0 0.0 0.00 0.00 0.00 94 1012.8
20260905102007 23 306 0.0 0.0 0.00 0.00 0.00 94 1012.7
20260905101507 23 306 0.0 0.0 0.00 0.00 0.00 94 1012.7
20260905101007 23 306 0.0 0.0 0.00 0.00 0.00 93 1012.8
20260905100507 23 306 0.0 0.0 0.00 0.00 0.00 93 1012.7
20260905100007 23 306 0.0 0.0 0.00 0.00 0.00 93 1012.5
20260905095007 23 306 0.0 0.0 0.00 0.00 0.00 93 1012.6
20260905094507 23 306 0.0 0.0 0.00 0.00 0.00 93 1012.7